This is the latest recevied weather packets stored in our database for station/object N8TWM-13. If no packets are shown the sender has not sent any weather packets the latest 10 day(s).
| Time | Temp. | Humidity | Pressure | Rain* | Wind** | Luminosity | Snow |
|---|---|---|---|---|---|---|---|
| 1777944757 | 18.89° C | 66% | 1005.5 hPa | 0 mm | - | 0 W/m² | - |
| 1777944455 | 18.89° C | 66% | 1005.6 hPa | 0 mm | - | 0 W/m² | - |
| 1777944152 | 18.89° C | 65% | 1005.3 hPa | 0 mm | - | 0 W/m² | - |
| 1777943848 | 18.89° C | 65% | 1005.5 hPa | 0 mm | - | 0 W/m² | - |
| 1777943545 | 18.89° C | 65% | 1005.5 hPa | 0 mm | - | 0 W/m² | - |
| 1777943241 | 18.89° C | 65% | 1005.6 hPa | 0 mm | - | 0 W/m² | - |
| 1777942937 | 18.89° C | 64% | 1005.5 hPa | 0 mm | - | 0 W/m² | - |
| 1777942634 | 18.89° C | 65% | 1005.2 hPa | 0 mm | - | 0 W/m² | - |
| 1777942331 | 18.89° C | 64% | 1005.3 hPa | 0 mm | - | 0 W/m² | - |
| 1777942028 | 18.89° C | 63% | 1005.6 hPa | 0 mm | - | 0 W/m² | - |
| 1777941725 | 18.89° C | 63% | 1005.2 hPa | 0 mm | - | 0 W/m² | - |
| 1777941422 | 18.89° C | 63% | 1005.6 hPa | 0 mm | - | 0 W/m² | - |
| 1777941120 | 19.44° C | 62% | 1005.1 hPa | 0 mm | - | 0 W/m² | - |
| 1777940815 | 19.44° C | 61% | 1005.3 hPa | 0 mm | - | 1 W/m² | - |
| 1777940513 | 19.44° C | 61% | 1005.1 hPa | 0 mm | - | 6 W/m² | - |
| 1777940210 | 19.44° C | 61% | 1005.3 hPa | 0 mm | - | 7 W/m² | - |
| 1777939908 | 20° C | 61% | 1005.2 hPa | 0 mm | - | 10 W/m² | - |
| 1777939605 | 20° C | 59% | 1005 hPa | 0 mm | - | 14 W/m² | - |
| 1777939303 | 20° C | 59% | 1005 hPa | 0 mm | - | 16 W/m² | - |
| 1777938998 | 20° C | 59% | 1005 hPa | 0 mm | - | 19 W/m² | - |
| 1777938695 | 20.56° C | 58% | 1004.8 hPa | 0 mm | - | 28 W/m² | - |
| 1777938393 | 20.56° C | 57% | 1004.8 hPa | 0 mm | - | 28 W/m² | - |
| 1777938090 | 21.11° C | 56% | 1004.8 hPa | 0 mm | - | 29 W/m² | - |
| 1777937785 | 21.11° C | 55% | 1004.5 hPa | 0 mm | - | 34 W/m² | - |
| 1777937481 | 21.11° C | 55% | 1004.6 hPa | 0 mm | - | 35 W/m² | - |
* Rain latest hour (hover to see other rain measurements)
** Current wind speed in m/s (hover to see current wind gust speed)